CW9461 Weather Reports


time (UTC)temp
C
wind
direction
speed
KPH
gust
KPH
rain 1hr
cm
rain 24hr
cm
rain mn
cm
humidity
%
barometer
mb
20260506160105 15 120 1.6 3.2 0.00 0.00 0.00 78 1011.2
20260506154104 15 157 1.6 9.7 0.00 0.00 0.00 79 1011.5
20260506153604 15 121 1.6 9.7 0.00 0.00 0.00 80 1011.5
20260506153104 15 207 1.6 8.0 0.00 0.00 0.00 80 1011.5
20260506152104 14 157 1.6 4.8 0.00 0.00 0.00 81 1011.5
20260506151604 14 147 1.6 12.9 0.00 0.00 0.00 82 1011.5
20260506150604 13 112 1.6 3.2 0.00 0.00 0.00 84 1011.5
20260506150104 13 157 3.2 9.7 0.00 0.00 0.00 84 1011.2
20260506145604 13 141 3.2 4.8 0.00 0.00 0.00 84 1011.5
20260506145104 13 139 1.6 4.8 0.00 0.00 0.00 84 1011.2
20260506144604 13 135 3.2 3.2 0.00 0.00 0.00 85 1011.2
20260506144105 13 138 1.6 4.8 0.00 0.00 0.00 85 1011.2
20260506143604 13 135 1.6 3.2 0.00 0.00 0.00 84 1011.2
20260506142604 13 135 1.6 4.8 0.00 0.00 0.00 84 1011.2
20260506142104 13 135 0.0 3.2 0.00 0.00 0.00 84 1011.2
20260506141604 13 135 0.0 3.2 0.00 0.00 0.00 84 1011.2
20260506141104 13 135 1.6 3.2 0.00 0.00 0.00 84 1010.8
20260506140605 13 135 1.6 3.2 0.00 0.00 0.00 84 1011.1
20260506140106 13 113 1.6 3.2 0.00 0.00 0.00 84 1010.8
20260506135604 13 112 1.6 3.2 0.00 0.00 0.00 84 1010.8
20260506135104 13 150 3.2 8.0 0.00 0.00 0.00 84 1010.8
20260506134604 12 135 3.2 3.2 0.00 0.00 0.00 84 1010.6
20260506133604 12 157 1.6 3.2 0.00 0.00 0.00 84 1010.8
20260506133104 12 135 1.6 3.2 0.00 0.00 0.00 84 1010.8
20260506132604 12 135 0.0 1.6 0.00 0.00 0.00 84 1010.5
20260506132104 12 157 0.0 0.0 0.00 0.00 0.00 84 1010.5
20260506131604 12 157 0.0 0.0 0.00 0.00 0.00 84 1010.8
20260506131105 12 157 0.0 0.0 0.00 0.00 0.00 84 1010.5
20260506130604 12 157 0.0 0.0 0.00 0.00 0.00 84 1010.5
20260506130105 12 157 0.0 0.0 0.00 0.00 0.00 84 1010.5
20260506125105 12 180 0.0 0.0 0.00 0.00 0.00 84 1010.5
20260506124604 12 112 0.0 0.0 0.00 0.00 0.00 84 1010.2
20260506124104 13 157 0.0 0.0 0.00 0.00 0.00 84 1010.2
20260506123104 13 135 0.0 0.0 0.00 0.00 0.00 83 1010.2
20260506122605 13 135 1.6 1.6 0.00 0.00 0.00 83 1010.5
20260506121604 13 149 1.6 3.2 0.00 0.00 0.00 83 1010.5
20260506120104 13 202 0.0 0.0 0.00 0.00 0.00 83 1010.5
20260506115104 13 135 0.0 0.0 0.00 0.00 0.00 82 1010.2
20260506114604 13 135 0.0 0.0 0.00 0.00 0.00 82 1010.2
20260506114104 13 135 0.0 0.0 0.00 0.00 0.00 82 1010.2
20260506113104 13 135 0.0 3.2 0.00 0.00 0.00 82 1010.2
20260506112603 13 155 0.0 4.8 0.00 0.00 0.00 82 1009.9
20260506112104 13 157 1.6 3.2 0.00 0.00 0.00 82 1010.2
20260506111604 13 176 1.6 3.2 0.00 0.00 0.00 82 1010.2
20260506111104 13 157 0.0 3.2 0.00 0.00 0.00 82 1009.9
20260506110604 13 157 1.6 3.2 0.00 0.00 0.00 82 1009.8
20260506110104 13 135 1.6 1.6 0.00 0.00 0.00 82 1009.8
20260506105604 13 135 1.6 4.8 0.00 0.00 0.00 82 1009.8
20260506105104 13 135 3.2 3.2 0.00 0.00 0.00 82 1009.8
20260506104605 13 150 1.6 3.2 0.00 0.00 0.00 82 1009.8
20260506104105 13 135 1.6 4.8 0.00 0.00 0.00 82 1009.8
20260506103604 13 135 3.2 3.2 0.00 0.00 0.00 82 1009.8
20260506103104 13 153 1.6 4.8 0.00 0.00 0.00 82 1009.8
20260506102604 13 151 1.6 3.2 0.00 0.00 0.00 83 1009.8
20260506102104 13 140 3.2 4.8 0.00 0.00 0.00 83 1009.8
20260506101605 13 161 1.6 3.2 0.00 0.00 0.00 83 1009.5
20260506101104 13 147 0.0 3.2 0.00 0.00 0.00 83 1009.8
20260506100604 13 157 0.0 1.6 0.00 0.00 0.00 83 1009.5
20260506100103 13 113 1.6 4.8 0.00 0.00 0.00 83 1009.5
20260506095604 13 158 1.6 4.8 0.00 0.00 0.00 84 1009.5
20260506095104 13 135 0.0 0.0 0.00 0.00 0.00 84 1009.5
20260506094604 13 157 0.0 0.0 0.00 0.00 0.00 84 1009.5
20260506094104 12 157 0.0 0.0 0.00 0.00 0.00 84 1009.5
20260506093605 12 202 0.0 0.0 0.00 0.00 0.00 84 1009.5
20260506092603 12 62 0.0 1.6 0.00 0.03 0.00 84 1009.8
20260506092104 12 101 0.0 3.2 0.00 0.03 0.00 84 1009.5
20260506091604 12 137 1.6 3.2 0.00 0.03 0.00 84 1009.8
20260506090604 12 92 1.6 4.8 0.00 0.03 0.00 84 1009.5
20260506085604 12 112 1.6 3.2 0.00 0.03 0.00 84 1009.8
20260506085103 12 135 0.0 3.2 0.00 0.03 0.00 84 1009.8
20260506084103 12 135 0.0 3.2 0.00 0.05 0.00 84 1009.8
20260506083604 12 157 1.6 3.2 0.00 0.05 0.00 84 1009.8
20260506083103 12 157 0.0 3.2 0.00 0.08 0.00 84 1009.8
20260506082604 12 157 0.0 1.6 0.00 0.08 0.00 84 1009.8
20260506082105 12 152 1.6 4.8 0.00 0.08 0.00 84 1009.5
20260506081604 12 154 1.6 4.8 0.00 0.08 0.00 84 1009.8
20260506081104 12 135 1.6 3.2 0.00 0.08 0.00 84 1009.8
20260506080104 12 157 1.6 4.8 0.00 0.08 0.00 84 1009.8
20260506073105 12 135 1.6 4.8 0.00 0.18 0.00 85 1009.4
20260506072104 12 157 0.0 3.2 0.00 0.20 0.00 86 1009.5
20260506071604 12 112 1.6 3.2 0.00 0.23 0.00 86 1009.5
20260506071105 12 112 0.0 3.2 0.00 0.25 0.00 87 1009.5
20260506070104 12 157 0.0 1.6 0.00 0.25 0.00 87 1009.1
20260506062103 12 112 0.0 3.2 0.00 0.30 0.28 86 1008.9
20260506061605 12 148 1.6 4.8 0.00 0.30 0.28 86 1008.8
20260506060106 12 112 0.0 0.0 0.00 0.30 0.28 85 1008.8
20260506051106 13 90 0.0 1.6 0.00 0.38 0.28 85 1008.5
20260506050605 13 191 1.6 4.8 0.00 0.41 0.28 85 1008.5
20260506050105 13 157 0.0 4.8 0.00 0.41 0.28 85 1008.4
20260506045105 13 112 0.0 3.2 0.00 0.41 0.28 84 1008.5
20260506044605 13 135 0.0 3.2 0.00 0.43 0.28 84 1008.1
20260506043605 13 180 1.6 4.8 0.00 0.46 0.28 83 1008.1
20260506043106 13 112 0.0 3.2 0.00 0.46 0.28 83 1008.1
20260506042606 13 154 0.0 1.6 0.00 0.48 0.28 83 1007.9
20260506042105 13 94 1.6 3.2 0.00 0.48 0.28 82 1007.8
20260506041605 13 129 1.6 3.2 0.00 0.48 0.28 82 1007.8
20260506041106 14 202 1.6 3.2 0.00 0.51 0.28 82 1007.8
20260506040605 14 115 1.6 3.2 0.00 0.51 0.28 81 1007.8
20260506035105 14 202 1.6 4.8 0.00 0.51 0.28 80 1007.8
20260506034606 14 157 0.0 3.2 0.00 0.51 0.28 80 1007.5
20260506034105 14 138 1.6 4.8 0.00 0.51 0.28 80 1007.5
20260506033106 14 202 0.0 1.6 0.00 0.51 0.28 79 1007.5
20260506032105 15 247 0.0 4.8 0.00 0.51 0.28 78 1007.1
20260506031605 15 247 1.6 3.2 0.00 0.51 0.28 77 1007.1
20260506030605 15 247 0.0 3.2 0.00 0.51 0.28 77 1006.8
20260506030105 15 202 1.6 3.2 0.00 0.51 0.28 76 1006.8
20260506025605 15 247 1.6 3.2 0.00 0.51 0.28 76 1006.8
20260506025105 15 202 0.0 3.2 0.00 0.51 0.28 75 1006.8
20260506024606 15 231 1.6 3.2 0.00 0.51 0.28 75 1006.8
20260506024105 15 162 0.0 3.2 0.00 0.51 0.28 75 1006.8
20260506023105 15 225 1.6 4.8 0.00 0.51 0.28 74 1006.7
20260506022606 16 118 0.0 1.6 0.00 0.51 0.28 74 1006.5
20260506022106 16 193 0.0 4.8 0.00 0.51 0.28 73 1006.4
20260506021605 16 208 3.2 8.0 0.00 0.51 0.28 73 1006.4
20260506021105 16 228 3.2 4.8 0.00 0.51 0.28 73 1006.4
20260506020606 16 212 0.0 4.8 0.00 0.51 0.28 72 1006.3
20260506020105 16 157 0.0 0.0 0.00 0.51 0.28 72 1006.4
20260506015607 17 205 0.0 3.2 0.00 0.51 0.28 71 1006.4
20260506015107 17 157 1.6 3.2 0.00 0.51 0.28 71 1006.4
20260506014607 17 225 0.0 3.2 0.00 0.51 0.28 70 1006.1
20260506014106 17 158 0.0 4.8 0.00 0.51 0.28 70 1006.1
20260506013605 17 157 1.6 3.2 0.00 0.51 0.28 70 1006.1
20260506012605 17 194 1.6 4.8 0.00 0.51 0.28 71 1006.1
20260506011605 17 180 1.6 11.3 0.00 0.51 0.28 70 1006.1
20260506011105 17 153 3.2 9.7 0.00 0.51 0.28 69 1006.0
20260506010605 17 121 4.8 8.0 0.00 0.51 0.28 69 1006.1
20260506010105 17 130 3.2 9.7 0.00 0.51 0.28 70 1005.9
20260506005605 17 153 4.8 14.5 0.00 0.51 0.28 69 1005.9
20260506005105 17 112 3.2 9.7 0.00 0.51 0.28 69 1005.8
20260506004606 17 118 4.8 9.7 0.00 0.51 0.28 69 1005.8
20260506004105 17 138 3.2 8.0 0.00 0.51 0.28 70 1005.8
20260506003605 17 138 3.2 8.0 0.00 0.51 0.28 71 1005.8
20260506003106 17 156 3.2 8.0 0.00 0.51 0.28 71 1005.8
20260506002605 17 202 1.6 4.8 0.00 0.51 0.28 71 1005.8
20260506002104 17 152 1.6 4.8 0.00 0.51 0.28 72 1005.8
20260506001604 17 217 1.6 8.0 0.00 0.51 0.28 71 1005.8
20260506001105 17 135 3.2 9.7 0.00 0.51 0.28 71 1005.8
20260506000105 17 190 3.2 9.7 0.00 0.51 0.28 71 1005.6
20260505235605 17 174 1.6 8.0 0.00 0.51 0.28 71 1005.8
20260505235106 17 199 3.2 8.0 0.00 0.51 0.28 71 1005.8
20260505234605 17 159 4.8 8.0 0.00 0.51 0.28 71 1005.8
20260505234104 17 223 1.6 8.0 0.00 0.51 0.28 71 1005.8
20260505233605 17 116 1.6 8.0 0.00 0.51 0.28 71 1005.8
20260505233105 17 176 3.2 4.8 0.00 0.51 0.28 71 1005.8
20260505232105 17 190 3.2 4.8 0.00 0.51 0.28 71 1005.8
20260505231106 17 246 0.0 4.8 0.00 0.51 0.28 71 1006.0
20260505230605 17 171 1.6 3.2 0.00 0.51 0.28 72 1005.9
20260505230106 17 170 0.0 3.2 0.00 0.51 0.28 72 1006.1
20260505225606 17 157 0.0 1.6 0.00 0.51 0.28 71 1005.9
20260505225105 17 157 1.6 3.2 0.00 0.51 0.28 71 1005.8
20260505224605 17 120 1.6 4.8 0.00 0.51 0.28 72 1006.1
20260505223605 17 247 1.6 4.8 0.00 0.51 0.28 72 1006.1
20260505222605 17 196 1.6 4.8 0.00 0.51 0.28 71 1006.1
20260505222105 17 147 3.2 4.8 0.00 0.51 0.28 70 1006.1
20260505221605 17 163 3.2 8.0 0.00 0.51 0.28 70 1006.1
20260505221105 17 187 3.2 8.0 0.00 0.51 0.28 70 1006.1
20260505220605 17 112 3.2 4.8 0.00 0.51 0.28 70 1006.1
20260505220105 17 143 1.6 4.8 0.00 0.51 0.28 70 1006.1
20260505215605 17 228 1.6 4.8 0.00 0.51 0.28 70 1006.1
20260505215105 17 157 3.2 4.8 0.00 0.51 0.28 70 1006.1
20260505214604 17 202 0.0 8.0 0.00 0.51 0.28 70 1006.1
20260505213604 17 160 3.2 8.0 0.00 0.51 0.28 69 1006.1
20260505213105 17 225 1.6 9.7 0.00 0.51 0.28 69 1006.1
20260505212605 17 242 3.2 4.8 0.00 0.51 0.28 69 1006.1
20260505212106 17 228 3.2 9.7 0.00 0.51 0.28 69 1006.1
20260505211605 17 281 3.2 8.0 0.00 0.51 0.28 69 1006.1
20260505211105 17 300 3.2 8.0 0.00 0.51 0.28 69 1006.1
20260505210604 17 292 3.2 8.0 0.00 0.51 0.28 69 1006.1
20260505210106 17 242 3.2 8.0 0.00 0.51 0.28 69 1006.1
20260505205606 17 283 3.2 8.0 0.00 0.51 0.28 69 1006.1
20260505205105 17 257 1.6 4.8 0.00 0.51 0.28 69 1006.1
20260505204604 17 224 3.2 8.0 0.00 0.51 0.28 69 1006.2
20260505204105 17 164 1.6 11.3 0.00 0.51 0.28 70 1006.1
20260505203605 17 239 4.8 9.7 0.00 0.51 0.28 70 1006.3
20260505203105 17 337 1.6 9.7 0.00 0.51 0.28 71 1006.4
20260505202104 17 268 4.8 9.7 0.00 0.51 0.28 71 1006.4
20260505201604 16 292 3.2 8.0 0.00 0.51 0.28 72 1006.2
20260505201105 16 252 6.4 11.3 0.00 0.51 0.28 72 1006.4
20260505200606 16 253 3.2 9.7 0.00 0.51 0.28 73 1006.4
20260505200105 16 279 4.8 9.7 0.00 0.51 0.28 73 1006.4
20260505195605 16 276 3.2 9.7 0.00 0.51 0.28 74 1006.4
20260505195105 16 264 4.8 12.9 0.00 0.51 0.28 74 1006.8
20260505194606 16 259 4.8 11.3 0.00 0.51 0.28 74 1006.4
20260505194106 16 253 4.8 16.1 0.00 0.51 0.28 75 1006.7
20260505193604 16 235 4.8 12.9 0.00 0.51 0.28 75 1006.4
20260505193105 16 243 6.4 14.5 0.00 0.51 0.28 75 1006.8
20260505192105 16 268 4.8 8.0 0.00 0.51 0.28 75 1006.8
20260505191605 16 241 3.2 9.7 0.00 0.51 0.28 76 1006.7
20260505191104 16 288 4.8 11.3 0.00 0.51 0.28 77 1006.6
20260505190604 15 267 3.2 11.3 0.00 0.51 0.28 78 1006.8
20260505190105 15 240 4.8 9.7 0.00 0.51 0.28 78 1006.4
20260505185605 15 288 3.2 11.3 0.00 0.51 0.28 77 1006.4
20260505184606 15 240 3.2 9.7 0.00 0.51 0.28 79 1006.6
20260505184105 15 278 4.8 12.9 0.00 0.51 0.28 80 1006.8
20260505183604 15 279 3.2 9.7 0.00 0.51 0.28 81 1006.4
20260505183105 15 259 3.2 11.3 0.00 0.51 0.28 81 1006.6
20260505182605 15 283 4.8 9.7 0.00 0.51 0.28 82 1006.8
20260505181605 14 249 4.8 11.3 0.00 0.51 0.28 83 1006.6
20260505180605 14 247 4.8 11.3 0.00 0.51 0.28 85 1006.8
20260505180105 14 255 6.4 12.9 0.00 0.51 0.28 85 1006.4
20260505175605 14 274 8.0 14.5 0.00 0.51 0.28 86 1006.6
20260505175104 13 263 4.8 9.7 0.00 0.51 0.28 86 1006.4
20260505174604 13 275 6.4 14.5 0.00 0.51 0.28 87 1006.4
20260505174105 13 283 4.8 12.9 0.00 0.51 0.28 88 1006.4
20260505173605 13 274 3.2 14.5 0.00 0.51 0.28 88 1006.4
20260505173106 13 231 3.2 8.0 0.00 0.51 0.28 89 1006.1
20260505172605 13 256 4.8 11.3 0.00 0.51 0.28 90 1006.1
20260505172104 13 255 3.2 9.7 0.00 0.51 0.28 91 1006.1
20260505171604 13 245 3.2 12.9 0.00 0.51 0.28 92 1006.1
20260505171106 12 234 1.6 9.7 0.00 0.51 0.28 93 1006.1
20260505170606 12 239 1.6 9.7 0.00 0.51 0.28 93 1006.2
20260505170104 13 219 1.6 8.0 0.00 0.51 0.28 94 1006.1
20260505165604 12 168 0.0 0.0 0.00 0.51 0.28 94 1006.3
20260505165104 12 180 0.0 0.0 0.00 0.51 0.28 94 1006.4
20260505164605 12 247 0.0 3.2 0.00 0.51 0.28 94 1006.4
20260505164105 12 292 0.0 1.6 0.00 0.51 0.28 95 1006.3
20260505163604 12 241 0.0 1.6 0.00 0.51 0.28 95 1006.2
20260505163105 12 288 0.0 1.6 0.00 0.51 0.28 95 1006.1
20260505162605 12 180 0.0 1.6 0.00 0.51 0.28 95 1006.1
20260505162105 12 221 1.6 9.7 0.00 0.51 0.28 95 1006.1
20260505161606 12 245 3.2 4.8 0.00 0.51 0.28 95 1006.2
20260505161104 12 270 0.0 4.8 0.00 0.51 0.28 95 1006.1
20260505160605 12 270 0.0 3.2 0.00 0.51 0.28 95 1006.1